Home > Weather > Rotterdam > Past weeks

Flag for Netherlands Past Weather in Rotterdam, Netherlands — Yesterday and Last 2 Weeks

Now
73 °F

Clear.


Feels Like: 76 °F
Forecast: 64 / 85 °F
Wind: 8 mph from North

Location: Rotterdam Zestienhoven Airport

Current Time: Aug 26, 2016 at 4:00:42 PM

Latest Report: Aug 26, 2016 at 2:55 PM


Visibility: N/A

Pressure: 30.07 "Hg

Humidity: 69%

Dew Point: 63 °F

Location of RotterdamLocation

Past Weather in Rotterdam — Graph

°F

Rotterdam Temperature Yesterday

Maximum temperature yesterday: 90 °F (at 2:55 PM)
Minimum temperature yesterday: 61 °F (at 6:55 AM)
Average temperature yesterday: 77 °F

High & Low Weather Summary for the Past Weeks

 TemperatureHumidityPressure
High90 °F (Aug 24, 4:25 PM)100% (Aug 11, 4:55 PM)30.30 "Hg (Aug 11, 4:55 PM)
Low52 °F (Aug 15, 1:55 AM)32% (Aug 17, 4:25 PM)29.71 "Hg (Aug 19, 7:55 PM)
Average67 °F76%30.05 "Hg
* Reported Aug 11 2:25 PM — Aug 26 2:55 PM, Rotterdam, Weather by CustomWeather, © 2016

Note: Actual official high and low records may vary slightly from our data, if they occured in-between our weather recording intervals... More about our weather records

Advertising

Rotterdam Weather History for the Previous 24 Hours

Scroll right to see more
 ConditionsComfort  
Time TempWeatherWind HumidityBarometerVisibility
2:55 PM
Fri, Aug 26
73 °FClear.8 mph69%30.07 "HgN/A
2:25 PM73 °FClear.7 mph65%30.07 "HgN/A
1:55 PM75 °FClear.9 mph61%30.07 "HgN/A
1:25 PM75 °FClear.8 mph65%30.04 "HgN/A
12:55 PM73 °FClear.7 mph74%30.04 "HgN/A
12:25 PM75 °FClear.8 mph74%30.04 "HgN/A
11:55 AM73 °FClear.7 mph74%30.01 "HgN/A
11:25 AM75 °FClear.7 mph74%30.01 "HgN/A
10:55 AM73 °FMild.6 mph78%30.01 "HgN/A
10:25 AM73 °FClear.3 mph78%30.01 "HgN/A
9:55 AM72 °FMild.7 mph83%29.98 "HgN/A
9:25 AM72 °FMild.7 mph83%29.98 "Hg5 mi
8:55 AM70 °FScattered clouds.8 mph88%29.98 "Hg4 mi
8:25 AM68 °FFog.6 mph94%29.98 "Hg1 mi
7:55 AM68 °FFog.5 mph88%29.95 "Hg1 mi
7:25 AM66 °FFog.1 mph94%29.92 "Hg1 mi
6:55 AM66 °FFog.1 mph88%29.95 "Hg1 mi
6:25 AM66 °FLight rain. Overcast.3 mph94%29.95 "Hg1 mi
5:55 AM66 °FFog.2 mph94%29.92 "Hg1 mi
5:25 AM66 °FFog.1 mph94%29.92 "Hg1 mi
4:55 AM68 °FFog.5 mph88%29.92 "Hg1 mi
4:25 AM70 °FFog.3 mph83%29.92 "Hg2 mi
3:55 AM70 °FFog.2 mph88%29.92 "Hg3 mi
3:25 AM70 °FMild.1 mph88%29.89 "Hg4 mi
2:55 AM72 °FMild.3 mph88%29.89 "HgN/A
2:25 AM72 °FClear.2 mph88%29.89 "HgN/A
1:55 AM72 °FMild.3 mph88%29.89 "HgN/A
1:25 AM75 °FMild.7 mph74%29.89 "HgN/A
12:55 AM77 °FWarm.7 mph69%29.89 "HgN/A
12:25 AM77 °FWarm.6 mph69%29.89 "HgN/A
11:55 PM
Thu, Aug 25
75 °FClear.6 mph78%29.89 "HgN/A
11:25 PM73 °FMild.3 mph83%29.89 "HgN/A
10:55 PM75 °FMild.2 mph78%29.89 "HgN/A
10:25 PM75 °FClear.2 mph78%29.92 "HgN/A
9:55 PM77 °FWarm.1 mph79%29.92 "HgN/A
9:25 PM77 °FWarm.2 mph74%29.92 "HgN/A
8:55 PM79 °FWarm.2 mph70%29.89 "HgN/A
8:25 PM82 °FWarm.5 mph66%29.89 "HgN/A
7:55 PM86 °FWarm.5 mph52%29.92 "HgN/A
7:25 PM88 °FWarm.6 mph49%29.89 "HgN/A
6:55 PM88 °FClear.6 mph49%29.92 "HgN/A
6:25 PM90 °FHot.5 mph43%29.92 "HgN/A
5:55 PM90 °FHot.8 mph43%29.92 "HgN/A
5:25 PM90 °FHot.8 mph41%29.92 "HgN/A
4:55 PM90 °FHot.7 mph41%29.92 "HgN/A
4:25 PM90 °FHot.7 mph38%29.95 "HgN/A
Weather by CustomWeather, © 2016

See weather overviewHow to use our weather pages